Weather History for Olean, NY

Change the Weather History Date:

Saturday, April 6, 2013

  Actual Average (KBFD) Record (KBFD)
Temperature  
Mean Temperature 34 °F 40 °F  
Max Temperature 46 °F 51 °F 77 °F (2010)
Min Temperature 21 °F 29 °F 7 °F (1982)
Degree Days  
Heating Degree Days 32 20  
Month to date heating degree days 124  
Since 1 July heating degree days 6731  
Cooling Degree Days 0 0  
Month to date cooling degree days 0  
Year to date cooling degree days 0  
Moisture  
Dew Point 13 °F    
Average Humidity 48    
Maximum Humidity 80    
Minimum Humidity 23    
Precipitation  
Precipitation 0.00 in 0.12 in 0.77 in (1986)
Month to date precipitation 0.73  
Year to date precipitation 9.74  
Sea Level Pressure  
Sea Level Pressure 30.14 in    
Wind  
Wind Speed 6 mph (SE)    
Max Wind Speed 15 mph    
Max Gust Speed 23 mph    
Visibility 10 miles    
Events      
T = Trace of Precipitation, MM = Missing Value Source: NWS Daily Summary

Daily Weather History Graph

Daily Weather History Graph

Search for Another Location

Airport:

Trip Planner

Search our weather history database for the weather conditions in past years. The results will help you decide how hot, cold, wet, or windy it might be!

Date:

Astronomy

Apr. 06, 2013 Rise Set
Actual Time 6:47 AM EDT 7:45 PM EDT
Civil Twilight 6:18 AM EDT 8:13 PM EDT
Nautical Twilight 5:44 AM EDT 8:47 PM EDT
Astronomical Twilight 5:09 AM EDT 9:23 PM EDT
Moon 4:33 AM EDT (4/6) 4:08 PM EDT (4/6)
Length of Visible Light 13h 55m
Length of Day
12h 57m
Waning Crescent, 15% of the Moon is Illuminated
Apr 6
Waning Crescent
Apr 10
New
Apr 18
First Quarter
Apr 25
Full
May 2
Last Quarter

Hourly Weather History & Observations

Time (EDT) Temp. Windchill Dew Point Humidity Pressure Visibility Wind Dir Wind Speed Gust Speed Precip Events Conditions
12:15 AM 26.6 °F 21.2 °F 17.6 °F 69% 30.08 in 10.0 mi NNW 4.6 mph - N/A   Scattered Clouds
12:35 AM 26.6 °F 21.2 °F 17.6 °F 69% 30.09 in 10.0 mi NNW 4.6 mph - N/A   Mostly Cloudy
12:55 AM 26.6 °F 21.2 °F 17.6 °F 69% 30.09 in 10.0 mi NNW 4.6 mph - N/A   Scattered Clouds
1:15 AM 24.8 °F 17.9 °F 17.6 °F 74% 30.10 in 10.0 mi NNW 5.8 mph - N/A   Clear
1:35 AM 24.8 °F 19.1 °F 15.8 °F 69% 30.11 in 10.0 mi NW 4.6 mph - N/A   Clear
1:55 AM 23.0 °F 17.0 °F 15.8 °F 74% 30.11 in 10.0 mi NNW 4.6 mph - N/A   Clear
2:15 AM 23.0 °F 18.4 °F 15.8 °F 74% 30.12 in 10.0 mi NW 3.5 mph - N/A   Scattered Clouds
2:35 AM 23.0 °F 17.0 °F 15.8 °F 74% 30.13 in 10.0 mi NNW 4.6 mph - N/A   Overcast
2:55 AM 23.0 °F 17.0 °F 15.8 °F 74% 30.13 in 10.0 mi North 4.6 mph - N/A   Scattered Clouds
3:15 AM 23.0 °F 18.4 °F 15.8 °F 74% 30.13 in 10.0 mi North 3.5 mph - N/A   Scattered Clouds
3:35 AM 23.0 °F 18.4 °F 15.8 °F 74% 30.13 in 10.0 mi North 3.5 mph - N/A   Scattered Clouds
3:55 AM 21.2 °F 14.9 °F 14.0 °F 74% 30.13 in 10.0 mi North 4.6 mph - N/A   Clear
4:15 AM 21.2 °F 13.6 °F 14.0 °F 74% 30.14 in 10.0 mi North 5.8 mph - N/A   Clear
4:35 AM 21.2 °F 14.9 °F 14.0 °F 74% 30.14 in 10.0 mi NNE 4.6 mph - N/A   Clear
4:55 AM 21.2 °F 16.4 °F 14.0 °F 74% 30.15 in 10.0 mi NNE 3.5 mph - N/A   Clear
5:15 AM 21.2 °F 16.4 °F 14.0 °F 74% 30.15 in 10.0 mi NNE 3.5 mph - N/A   Clear
5:35 AM 21.2 °F 14.9 °F 14.0 °F 74% 30.15 in 10.0 mi NNE 4.6 mph - N/A   Clear
5:55 AM 21.2 °F - 14.0 °F 74% 30.16 in 10.0 mi Calm Calm - N/A   Clear
6:15 AM 21.2 °F - 14.0 °F 74% 30.16 in 10.0 mi Calm Calm - N/A   Clear
6:35 AM 21.2 °F 16.4 °F 14.0 °F 74% 30.18 in 10.0 mi North 3.5 mph - N/A   Clear
6:55 AM 21.2 °F - 14.0 °F 74% 30.18 in 10.0 mi Calm Calm - N/A   Clear
7:15 AM 21.2 °F - 15.8 °F 80% 30.19 in 10.0 mi Calm Calm - N/A   Clear
7:35 AM 21.2 °F 16.4 °F 15.8 °F 80% 30.19 in 10.0 mi NE 3.5 mph - N/A   Clear
7:55 AM 23.0 °F 15.8 °F 17.6 °F 80% 30.20 in 10.0 mi NE 5.8 mph - N/A   Clear
8:15 AM 23.0 °F 13.9 °F 17.6 °F 80% 30.20 in 10.0 mi NE 8.1 mph - N/A   Clear
8:35 AM 24.8 °F 16.1 °F 17.6 °F 74% 30.21 in 10.0 mi NE 8.1 mph - N/A   Clear
8:55 AM 26.6 °F 18.2 °F 17.6 °F 69% 30.21 in 10.0 mi East 8.1 mph - N/A   Clear
9:15 AM 28.4 °F 24.6 °F 17.6 °F 64% 30.22 in 10.0 mi East 3.5 mph - N/A   Clear
9:35 AM 28.4 °F 23.3 °F 15.8 °F 59% 30.23 in 10.0 mi East 4.6 mph - N/A   Clear
9:55 AM 30.2 °F 22.6 °F 14.0 °F 51% 30.23 in 10.0 mi East 8.1 mph - N/A   Clear
10:15 AM 30.2 °F 21.3 °F 12.2 °F 47% 30.23 in 10.0 mi East 10.4 mph - N/A   Clear
10:35 AM 32.0 °F 26.4 °F 14.0 °F 48% 30.23 in 10.0 mi East 5.8 mph - N/A   Clear
10:55 AM 32.0 °F 28.7 °F 14.0 °F 48% 30.23 in 10.0 mi East 3.5 mph - N/A   Clear
11:15 AM 32.0 °F 27.5 °F 12.2 °F 44% 30.23 in 10.0 mi SE 4.6 mph - N/A   Clear
11:35 AM 33.8 °F 27.7 °F 14.0 °F 44% 30.23 in 10.0 mi ESE 6.9 mph - N/A   Clear
11:55 AM 35.6 °F 29.9 °F 12.2 °F 38% 30.22 in 10.0 mi SE 6.9 mph - N/A   Clear
12:15 PM 35.6 °F 31.7 °F 10.4 °F 35% 30.21 in 10.0 mi SE 4.6 mph - N/A   Clear
12:35 PM 37.4 °F 32.8 °F 12.2 °F 36% 30.20 in 10.0 mi South 5.8 mph - N/A   Clear
12:55 PM 37.4 °F 30.3 °F 12.2 °F 36% 30.21 in 10.0 mi South 10.4 mph - N/A   Clear
1:15 PM 39.2 °F 37.0 °F 10.4 °F 31% 30.20 in 10.0 mi South 3.5 mph - N/A   Clear
1:35 PM 41.0 °F 39.0 °F 14.0 °F 33% 30.20 in 10.0 mi SSE 3.5 mph - N/A   Clear
1:55 PM 41.0 °F 36.4 °F 14.0 °F 33% 30.19 in 10.0 mi SSW 6.9 mph - N/A   Clear
2:15 PM 42.8 °F 41.1 °F 12.2 °F 29% 30.18 in 10.0 mi ESE 3.5 mph - N/A   Clear
2:35 PM 42.8 °F 38.0 °F 14.0 °F 31% 30.16 in 10.0 mi SSE 8.1 mph - N/A   Clear
2:55 PM 44.6 °F 40.2 °F 12.2 °F 27% 30.16 in 10.0 mi ESE 8.1 mph - N/A   Clear
3:15 PM 44.6 °F 42.2 °F 10.4 °F 25% 30.15 in 10.0 mi South 4.6 mph - N/A   Clear
3:35 PM 44.6 °F 40.7 °F 10.4 °F 25% 30.14 in 10.0 mi SSE 6.9 mph - N/A   Clear
3:55 PM 44.6 °F 42.2 °F 10.4 °F 25% 30.12 in 10.0 mi South 4.6 mph - N/A   Clear
4:15 PM 44.6 °F 42.2 °F 10.4 °F 25% 30.12 in 10.0 mi SW 4.6 mph - N/A   Clear
4:35 PM 44.6 °F 40.2 °F 8.6 °F 23% 30.12 in 10.0 mi SW 8.1 mph - N/A   Clear
4:55 PM 44.6 °F 40.2 °F 10.4 °F 25% 30.11 in 10.0 mi South 8.1 mph - N/A   Clear
5:15 PM 44.6 °F 39.7 °F 10.4 °F 25% 30.10 in 10.0 mi SSW 9.2 mph - N/A   Clear
5:35 PM 44.6 °F 40.7 °F 10.4 °F 25% 30.10 in 10.0 mi SSW 6.9 mph - N/A   Clear
5:55 PM 46.4 °F 41.9 °F 10.4 °F 23% 30.10 in 10.0 mi South 9.2 mph - N/A   Clear
6:15 PM 44.6 °F 40.7 °F 8.6 °F 23% 30.10 in 10.0 mi SSW 6.9 mph - N/A   Clear
6:35 PM 44.6 °F 40.7 °F 10.4 °F 25% 30.10 in 10.0 mi South 6.9 mph - N/A   Scattered Clouds
6:55 PM 44.6 °F 40.7 °F 8.6 °F 23% 30.09 in 10.0 mi SSE 6.9 mph - N/A   Overcast
7:15 PM 44.6 °F 40.2 °F 10.4 °F 25% 30.09 in 10.0 mi South 8.1 mph - N/A   Overcast
7:35 PM 44.6 °F 39.7 °F 10.4 °F 25% 30.08 in 10.0 mi SSE 9.2 mph - N/A   Mostly Cloudy
7:55 PM 42.8 °F 40.1 °F 10.4 °F 27% 30.08 in 10.0 mi South 4.6 mph - N/A   Scattered Clouds
8:15 PM 42.8 °F 39.3 °F 10.4 °F 27% 30.08 in 10.0 mi South 5.8 mph - N/A   Mostly Cloudy
8:35 PM 42.8 °F 38.6 °F 12.2 °F 29% 30.08 in 10.0 mi SSW 6.9 mph - N/A   Mostly Cloudy
8:55 PM 44.6 °F 38.1 °F 10.4 °F 25% 30.08 in 10.0 mi South 13.8 mph 19.6 mph N/A   Mostly Cloudy
9:15 PM 44.6 °F 38.8 °F 12.2 °F 27% 30.07 in 10.0 mi South 11.5 mph 19.6 mph N/A   Mostly Cloudy
9:35 PM 42.8 °F 38.0 °F 12.2 °F 29% 30.07 in 10.0 mi South 8.1 mph 16.1 mph N/A   Scattered Clouds
9:55 PM 42.8 °F 35.4 °F 12.2 °F 29% 30.06 in 10.0 mi South 15.0 mph 23.0 mph N/A   Clear
10:15 PM 42.8 °F 36.2 °F 12.2 °F 29% 30.05 in 10.0 mi South 12.7 mph 19.6 mph N/A   Clear
10:35 PM 42.8 °F 36.6 °F 14.0 °F 31% 30.04 in 10.0 mi South 11.5 mph 17.3 mph N/A   Clear
10:55 PM 42.8 °F 36.6 °F 14.0 °F 31% 30.03 in 10.0 mi South 11.5 mph 16.1 mph N/A   Clear
11:15 PM 42.8 °F 36.6 °F 15.8 °F 34% 30.03 in 10.0 mi South 11.5 mph 19.6 mph N/A   Clear
11:35 PM 42.8 °F 36.6 °F 15.8 °F 34% 30.02 in 10.0 mi South 11.5 mph 17.3 mph N/A   Clear
11:55 PM 41.0 °F 33.5 °F 15.8 °F 36% 30.02 in 10.0 mi South 13.8 mph 21.9 mph N/A   Clear